Tracking 18673 objects as of 28-June-2017
HD Live streaming from Space Station
objects crossing your sky now

COSMOS 2251 DEB

Track COSMOS 2251 DEB now!
10-day predictions


NORAD ID: 34447
Int'l Code: 1993-036SQ
Perigee: 626.0 km
Apogee: 659.5 km
Inclination: 74.0 °
Period: 97.4 minutes
Semi major axis: 7013 km
RCS: 0.038 m2 (small)
Launch date: June 16, 1993
Source: Commonwealth of Independent States (former USSR) (CIS)
Launch site: PLESETSK MISSILE AND SPACE COMPLEX (PKMTR)

Note: This is SATELLITE DEBRIS
Your satellite tracking list
Your tracking list is empty





NASA's NSSDC Master Catalog

Two Line Element Set (TLE):
1 34447U 93036SQ  17177.89554747 +.00002045 +00000-0 +28684-3 0  9997
2 34447 074.0280 337.1537 0023873 141.0197 010.3815 14.78001625443003
Source of the keplerian elements: AFSPC